Time,TemperatureF,DewpointF,PressureIn,WindDirection,WindDirectionDegrees,WindSpeedMPH,WindSpeedGustMPH,Humidity,HourlyPrecipIn,Conditions,Clouds,dailyrainin,SoftwareType,DateUTC
2013-06-25 00:01:00,76.0,73.0,30.10,SW,227,0.0,0.0,89,0.00,,,0.00,,2013-06-25 04:01:00,
2013-06-25 00:02:00,76.0,73.0,30.11,SW,227,0.0,0.0,89,0.00,,,0.00,,2013-06-25 04:02:00,
2013-06-25 00:11:00,76.0,73.0,30.11,SW,227,0.0,0.0,89,0.00,,,0.00,,2013-06-25 04:11:00,
2013-06-25 00:22:00,75.0,72.0,30.11,SW,227,0.0,0.0,89,0.00,,,0.00,,2013-06-25 04:22:00,
2013-06-25 00:34:00,75.0,72.0,30.11,SW,227,0.0,0.0,89,0.00,,,0.00,,2013-06-25 04:34:00,
2013-06-25 00:43:00,75.0,72.0,30.11,SW,227,0.0,0.0,89,0.00,,,0.00,,2013-06-25 04:43:00,
2013-06-25 00:52:00,75.0,72.0,30.11,SW,227,0.0,1.0,89,0.00,,,0.00,,2013-06-25 04:52:00,
2013-06-25 01:22:00,75.0,72.0,30.11,SW,227,0.0,0.0,89,0.00,,,0.00,,2013-06-25 05:22:00,
2013-06-25 01:32:00,75.0,72.0,30.11,SW,227,0.0,0.0,90,0.00,,,0.00,,2013-06-25 05:32:00,
2013-06-25 01:44:00,75.0,72.0,30.11,SW,227,0.0,0.0,90,0.00,,,0.00,,2013-06-25 05:44:00,
2013-06-25 01:52:00,74.0,71.0,30.11,SW,227,0.0,0.0,90,0.00,,,0.00,,2013-06-25 05:52:00,
2013-06-25 02:01:00,74.0,71.0,30.11,SW,227,0.0,0.0,90,0.00,,,0.00,,2013-06-25 06:01:00,
2013-06-25 02:11:00,74.0,71.0,30.10,SW,227,0.0,0.0,90,0.00,,,0.00,,2013-06-25 06:11:00,
2013-06-25 02:43:00,74.0,71.0,30.10,SW,227,0.0,0.0,90,0.00,,,0.00,,2013-06-25 06:43:00,
2013-06-25 02:52:00,74.0,71.0,30.10,SW,227,0.0,0.0,90,0.00,,,0.00,,2013-06-25 06:52:00,
2013-06-25 03:02:00,74.0,71.0,30.09,SW,227,0.0,0.0,90,0.00,,,0.00,,2013-06-25 07:02:00,
2013-06-25 03:11:00,74.0,71.0,30.09,SW,227,0.0,0.0,90,0.00,,,0.00,,2013-06-25 07:11:00,
2013-06-25 03:22:00,74.0,71.0,30.09,SW,227,0.0,0.0,90,0.00,,,0.00,,2013-06-25 07:22:00,
2013-06-25 03:33:00,73.0,70.0,30.08,SW,227,0.0,0.0,90,0.00,,,0.00,,2013-06-25 07:33:00,
2013-06-25 03:43:00,73.0,70.0,30.07,SW,227,0.0,0.0,90,0.00,,,0.00,,2013-06-25 07:43:00,
2013-06-25 03:52:00,72.0,69.0,30.06,SW,227,0.0,0.0,90,0.00,,,0.00,,2013-06-25 07:52:00,
2013-06-25 04:02:00,72.0,69.0,30.06,SW,227,0.0,0.0,90,0.00,,,0.00,,2013-06-25 08:02:00,
2013-06-25 04:11:00,72.0,69.0,30.06,SW,227,0.0,0.0,90,0.00,,,0.00,,2013-06-25 08:11:00,
2013-06-25 04:21:00,72.0,69.0,30.06,SW,227,0.0,0.0,90,0.00,,,0.00,,2013-06-25 08:21:00,
2013-06-25 04:34:00,72.0,69.0,30.05,SW,227,0.0,0.0,90,0.00,,,0.00,,2013-06-25 08:34:00,
2013-06-25 04:43:00,72.0,69.0,30.05,SW,227,0.0,0.0,90,0.00,,,0.00,,2013-06-25 08:43:00,
2013-06-25 04:53:00,72.0,69.0,30.05,SW,227,0.0,0.0,90,0.00,,,0.00,,2013-06-25 08:53:00,
2013-06-25 05:02:00,72.0,69.0,30.05,SW,227,0.0,0.0,90,0.00,,,0.00,,2013-06-25 09:02:00,
2013-06-25 05:12:00,72.0,69.0,30.05,SW,227,0.0,0.0,90,0.00,,,0.00,,2013-06-25 09:12:00,
2013-06-25 05:33:00,72.0,69.0,30.05,SW,227,0.0,0.0,90,0.00,,,0.00,,2013-06-25 09:33:00,
2013-06-25 05:43:00,72.0,69.0,30.05,SW,227,0.0,0.0,90,0.00,,,0.00,,2013-06-25 09:43:00,
2013-06-25 05:53:00,71.0,68.0,30.05,SW,227,0.0,0.0,91,0.00,,,0.00,,2013-06-25 09:53:00,
2013-06-25 06:01:00,71.0,68.0,30.05,SW,227,0.0,0.0,90,0.00,,,0.00,,2013-06-25 10:01:00,
2013-06-25 06:33:00,71.0,68.0,30.05,SW,227,0.0,0.0,91,0.00,,,0.00,,2013-06-25 10:33:00,
2013-06-25 06:42:00,71.0,68.0,30.06,SW,227,0.0,0.0,91,0.00,,,0.00,,2013-06-25 10:42:00,
2013-06-25 06:52:00,71.0,68.0,30.06,SW,227,0.0,0.0,91,0.00,,,0.00,,2013-06-25 10:52:00,
2013-06-25 07:12:00,71.0,68.0,30.06,SW,227,0.0,0.0,91,0.00,,,0.00,,2013-06-25 11:12:00,
2013-06-25 07:42:00,74.0,70.0,30.06,SW,227,0.0,1.0,87,0.00,,,0.00,,2013-06-25 11:42:00,
2013-06-25 07:52:00,73.0,69.0,30.06,SW,227,0.0,0.0,88,0.00,,,0.00,,2013-06-25 11:52:00,
2013-06-25 08:02:00,74.0,70.0,30.06,SW,227,0.0,1.0,87,0.00,,,0.00,,2013-06-25 12:02:00,
2013-06-25 08:11:00,74.0,70.0,30.06,SW,227,0.0,1.0,87,0.00,,,0.00,,2013-06-25 12:11:00,
2013-06-25 08:22:00,74.0,70.0,30.06,SW,227,0.0,1.0,87,0.00,,,0.00,,2013-06-25 12:22:00,
2013-06-25 08:33:00,74.0,70.0,30.06,SW,227,0.0,1.0,87,0.00,,,0.00,,2013-06-25 12:33:00,
2013-06-25 09:53:00,84.0,77.0,30.09,SSE,157,1.0,2.0,79,0.00,,,0.00,,2013-06-25 13:53:00,
2013-06-25 10:01:00,84.0,77.0,30.09,SSE,157,1.0,2.0,79,0.00,,,0.00,,2013-06-25 14:01:00,
2013-06-25 10:11:00,85.0,77.0,30.09,South,186,1.0,4.0,76,0.00,,,0.00,,2013-06-25 14:11:00,
2013-06-25 10:23:00,85.0,77.0,30.09,South,186,1.0,4.0,76,0.00,,,0.00,,2013-06-25 14:23:00,
2013-06-25 10:34:00,85.0,77.0,30.09,ENE,76,0.0,6.0,76,0.00,,,0.00,,2013-06-25 14:34:00,
2013-06-25 10:43:00,86.0,78.0,30.09,ESE,113,0.0,6.0,76,0.00,,,0.00,,2013-06-25 14:43:00,
2013-06-25 10:53:00,86.0,76.0,30.09,ENE,66,3.0,3.0,73,0.00,,,0.00,,2013-06-25 14:53:00,
2013-06-25 11:11:00,87.0,77.0,30.09,NE,56,3.0,4.0,72,0.00,,,0.00,,2013-06-25 15:11:00,
2013-06-25 11:22:00,88.0,77.0,30.09,ENE,71,2.0,4.0,70,0.00,,,0.00,,2013-06-25 15:22:00,
2013-06-25 11:32:00,88.0,76.0,30.09,SE,137,1.0,5.0,67,0.00,,,0.00,,2013-06-25 15:32:00,
2013-06-25 11:44:00,89.0,76.0,30.09,NE,39,0.0,5.0,66,0.00,,,0.00,,2013-06-25 15:44:00,
2013-06-25 11:53:00,89.0,76.0,30.09,NE,39,0.0,5.0,66,0.00,,,0.00,,2013-06-25 15:53:00,
2013-06-25 12:12:00,89.0,76.0,30.09,ESE,121,0.0,5.0,65,0.00,,,0.00,,2013-06-25 16:12:00,
2013-06-25 12:32:00,91.0,76.0,30.07,NE,46,0.0,3.0,61,0.00,,,0.00,,2013-06-25 16:32:00,
2013-06-25 12:35:00,90.0,76.0,30.09,ENE,60,1.0,4.0,64,0.00,,,0.00,,2013-06-25 16:35:00,
2013-06-25 13:01:00,91.0,76.0,30.07,NE,46,0.0,3.0,61,0.00,,,0.00,,2013-06-25 17:01:00,
2013-06-25 13:11:00,91.0,76.0,30.07,NE,46,0.0,3.0,61,0.00,,,0.00,,2013-06-25 17:11:00,
2013-06-25 13:22:00,91.0,76.0,30.07,NE,46,0.0,3.0,61,0.00,,,0.00,,2013-06-25 17:22:00,
2013-06-25 13:44:00,90.0,76.0,30.06,NE,56,1.0,6.0,63,0.00,,,0.00,,2013-06-25 17:44:00,
2013-06-25 13:53:00,90.0,76.0,30.06,NE,56,1.0,6.0,63,0.00,,,0.00,,2013-06-25 17:53:00,
2013-06-25 14:23:00,90.0,76.0,30.06,SSW,205,2.0,7.0,64,0.00,,,0.00,,2013-06-25 18:23:00,
2013-06-25 14:52:00,92.0,77.0,30.03,NE,34,0.0,3.0,61,0.00,,,0.00,,2013-06-25 18:52:00,
2013-06-25 15:01:00,92.0,77.0,30.03,NE,34,0.0,3.0,61,0.00,,,0.00,,2013-06-25 19:01:00,
2013-06-25 15:22:00,91.0,76.0,30.02,ENE,72,1.0,6.0,62,0.00,,,0.00,,2013-06-25 19:22:00,
2013-06-25 15:33:00,91.0,76.0,30.02,ENE,72,1.0,6.0,62,0.00,,,0.00,,2013-06-25 19:33:00,
2013-06-25 15:44:00,90.0,74.0,30.01,NE,53,0.0,4.0,59,0.00,,,0.00,,2013-06-25 19:44:00,
2013-06-25 15:53:00,90.0,76.0,30.01,NE,53,0.0,1.0,63,0.00,,,0.00,,2013-06-25 19:53:00,
2013-06-25 16:02:00,90.0,75.0,30.01,East,86,0.0,3.0,62,0.00,,,0.00,,2013-06-25 20:02:00,
2013-06-25 16:22:00,88.0,77.0,30.01,SSE,167,0.0,4.0,70,0.00,,,0.00,,2013-06-25 20:22:00,
2013-06-25 16:42:00,83.0,75.0,30.00,SW,233,5.0,7.0,78,0.00,,,0.00,,2013-06-25 20:42:00,
2013-06-25 16:52:00,75.0,71.0,30.04,SW,218,0.0,17.0,86,2.00,,,2.00,,2013-06-25 20:52:00,
2013-06-25 17:22:00,75.0,71.0,30.04,SW,218,0.0,17.0,86,2.00,,,2.00,,2013-06-25 21:22:00,
2013-06-25 17:34:00,75.0,71.0,30.04,SW,218,0.0,17.0,86,2.00,,,2.00,,2013-06-25 21:34:00,
2013-06-25 17:43:00,75.0,71.0,30.04,SW,218,0.0,17.0,86,2.00,,,2.00,,2013-06-25 21:43:00,